• In Uzbekistan
  • List of Countries
  • For 7 days
  • Water Temperature
  • Satellite Maps
  • Weather Map
  • Weather Widgets
  • user-avatar
    Login

    Hourly Weather Rozdollya

    Today, 23 May, Wednesday

    Time Temperature Precipitation Wind Pressure Humidity
    00:00 +18°C° 0 mm 3 mps 754 mmHg 90%
    01:00 +17°C° 0 mm 3 mps 754 mmHg 92%
    02:00 +17°C° 0 mm 3 mps 754 mmHg 93%
    03:00 +18°C° 0 mm 3 mps 754 mmHg 93%
    04:00 +18°C° 0 mm 3 mps 754 mmHg 93%
    05:00 +18°C° 0 mm 3 mps 754 mmHg 93%
    06:00 +20°C° 0 mm 3 mps 754 mmHg 87%
    07:00 +21°C° 0 mm 4 mps 754 mmHg 81%
    08:00 +23°C° 0 mm 4 mps 754 mmHg 74%
    09:00 +25°C° 0.2 mm 4 mps 754 mmHg 68%
    10:00 +26°C° 0.2 mm 4 mps 753 mmHg 62%
    11:00 +27°C° 0.2 mm 4 mps 753 mmHg 56%
    12:00 +27°C° 0.1 mm 4 mps 753 mmHg 57%
    13:00 +28°C° 0.1 mm 4 mps 753 mmHg 57%
    14:00 +27°C° 0 mm 4 mps 753 mmHg 65%
    15:00 +26°C° 0.9 mm 4 mps 752 mmHg 68%
    16:00 +25°C° 0.9 mm 4 mps 752 mmHg 71%
    17:00 +25°C° 0.9 mm 3 mps 752 mmHg 74%
    18:00 +24°C° 0.2 mm 3 mps 752 mmHg 79%
    19:00 +21°C° 0.2 mm 2 mps 752 mmHg 85%
    20:00 +20°C° 0.2 mm 2 mps 752 mmHg 90%
    21:00 +19°C° 0 mm 2 mps 751 mmHg 91%
    22:00 +19°C° 0 mm 2 mps 751 mmHg 92%
    23:00 +18°C° 0 mm 2 mps 751 mmHg 93%

    Tomorrow, 24 May, Thursday

    Time Temperature Precipitation Wind Pressure Humidity
    00:00 +18°C° 0 mm 2 mps 751 mmHg 94%
    01:00 +18°C° 0 mm 2 mps 751 mmHg 95%
    02:00 +18°C° 0 mm 2 mps 750 mmHg 96%
    03:00 +18°C° 0 mm 2 mps 750 mmHg 95%
    04:00 +18°C° 0 mm 3 mps 750 mmHg 95%
    05:00 +18°C° 0 mm 3 mps 750 mmHg 95%
    06:00 +19°C° 0 mm 3 mps 750 mmHg 90%
    07:00 +21°C° 0 mm 3 mps 750 mmHg 84%
    08:00 +22°C° 0 mm 3 mps 750 mmHg 79%
    09:00 +24°C° 0.1 mm 3 mps 749 mmHg 76%
    10:00 +24°C° 0.1 mm 3 mps 749 mmHg 73%
    11:00 +25°C° 0.1 mm 3 mps 749 mmHg 70%
    12:00 +26°C° 0.1 mm 3 mps 749 mmHg 66%
    13:00 +26°C° 0.1 mm 3 mps 748 mmHg 63%
    14:00 +27°C° 0.1 mm 3 mps 748 mmHg 60%
    15:00 +26°C° 0.3 mm 3 mps 748 mmHg 63%
    16:00 +26°C° 0.3 mm 3 mps 748 mmHg 66%
    17:00 +25°C° 0.3 mm 3 mps 747 mmHg 69%
    18:00 +24°C° 0 mm 3 mps 747 mmHg 75%
    19:00 +21°C° 0 mm 3 mps 747 mmHg 82%
    20:00 +20°C° 0 mm 2 mps 747 mmHg 88%
    21:00 +19°C° 0 mm 2 mps 747 mmHg 90%
    22:00 +19°C° 0 mm 2 mps 747 mmHg 92%
    23:00 +18°C° 0 mm 2 mps 747 mmHg 94%

    Day after tomorrow, 25 May, Friday

    Time Temperature Precipitation Wind Pressure Humidity
    00:00 +18°C° 0 mm 2 mps 747 mmHg 95%
    01:00 +17°C° 0 mm 2 mps 747 mmHg 95%
    02:00 +17°C° 0 mm 2 mps 747 mmHg 96%
    03:00 +17°C° 0 mm 3 mps 747 mmHg 96%
    04:00 +17°C° 0 mm 3 mps 747 mmHg 95%
    05:00 +17°C° 0 mm 4 mps 748 mmHg 95%
    06:00 +18°C° 0 mm 4 mps 748 mmHg 92%
    07:00 +19°C° 0 mm 4 mps 748 mmHg 89%
    08:00 +19°C° 0 mm 5 mps 748 mmHg 86%
    09:00 +20°C° 0 mm 5 mps 748 mmHg 81%
    10:00 +21°C° 0 mm 5 mps 749 mmHg 77%
    11:00 +22°C° 0 mm 5 mps 749 mmHg 73%
    12:00 +22°C° 0.6 mm 6 mps 749 mmHg 72%
    13:00 +23°C° 0.6 mm 7 mps 749 mmHg 71%
    14:00 +23°C° 0.6 mm 8 mps 749 mmHg 70%
    15:00 +22°C° 0.3 mm 8 mps 749 mmHg 72%
    16:00 +22°C° 0.3 mm 8 mps 750 mmHg 73%
    17:00 +21°C° 0.3 mm 8 mps 750 mmHg 75%
    18:00 +20°C° 0 mm 8 mps 750 mmHg 76%
    19:00 +18°C° 0 mm 8 mps 751 mmHg 76%
    20:00 +17°C° 0 mm 7 mps 752 mmHg 77%
    21:00 +17°C° 0 mm 8 mps 752 mmHg 74%
    22:00 +16°C° 0 mm 8 mps 752 mmHg 71%
    23:00 +15°C° 0 mm 8 mps 753 mmHg 68%

    26 May, Saturday

    Time Temperature Precipitation Wind Pressure Humidity
    00:00 +13°C° 0 mm 8 mps 753 mmHg 66%
    01:00 +12°C° 0 mm 8 mps 754 mmHg 64%
    02:00 +11°C° 0 mm 8 mps 754 mmHg 62%
    03:00 +10°C° 0 mm 8 mps 754 mmHg 63%
    04:00 +10°C° 0 mm 8 mps 755 mmHg 64%
    05:00 +9°C° 0 mm 8 mps 755 mmHg 65%
    06:00 +10°C° 0 mm 9 mps 756 mmHg 61%
    07:00 +11°C° 0 mm 9 mps 756 mmHg 58%
    08:00 +12°C° 0 mm 9 mps 757 mmHg 55%
    09:00 +13°C° 0 mm 9 mps 757 mmHg 53%
    10:00 +14°C° 0 mm 10 mps 758 mmHg 51%
    11:00 +16°C° 0 mm 10 mps 758 mmHg 49%
    12:00 +17°C° 0 mm 9 mps 758 mmHg 49%
    13:00 +17°C° 0 mm 9 mps 758 mmHg 49%
    14:00 +18°C° 0 mm 9 mps 758 mmHg 49%
    15:00 +17°C° 0 mm 9 mps 758 mmHg 51%
    16:00 +17°C° 0 mm 8 mps 758 mmHg 54%
    17:00 +16°C° 0 mm 8 mps 758 mmHg 56%
    18:00 +15°C° 0 mm 7 mps 759 mmHg 59%
    19:00 +14°C° 0 mm 6 mps 759 mmHg 63%
    20:00 +13°C° 0 mm 6 mps 760 mmHg 66%
    21:00 +12°C° 0 mm 5 mps 760 mmHg 66%
    22:00 +10°C° 0 mm 5 mps 760 mmHg 66%
    23:00 +10°C° 0 mm 5 mps 760 mmHg 66%

    27 May, Sunday

    Time Temperature Precipitation Wind Pressure Humidity
    00:00 +9°C° 0 mm 5 mps 760 mmHg 66%
    01:00 +9°C° 0 mm 5 mps 760 mmHg 66%
    02:00 +8°C° 0 mm 5 mps 760 mmHg 67%
    03:00 +8°C° 0 mm 5 mps 760 mmHg 67%
    04:00 +8°C° 0 mm 5 mps 760 mmHg 68%
    05:00 +8°C° 0 mm 5 mps 761 mmHg 68%
    06:00 +9°C° 0 mm 6 mps 761 mmHg 63%
    07:00 +11°C° 0 mm 6 mps 761 mmHg 58%
    08:00 +14°C° 0 mm 7 mps 761 mmHg 53%
    09:00 +15°C° 0 mm 7 mps 760 mmHg 51%
    10:00 +16°C° 0 mm 7 mps 760 mmHg 49%
    11:00 +17°C° 0 mm 7 mps 760 mmHg 47%
    12:00 +18°C° 0 mm 7 mps 760 mmHg 47%
    13:00 +18°C° 0 mm 7 mps 759 mmHg 47%
    14:00 +20°C° 0 mm 7 mps 759 mmHg 47%
    15:00 +20°C° 0 mm 6 mps 759 mmHg 49%
    16:00 +19°C° 0 mm 6 mps 759 mmHg 51%
    17:00 +19°C° 0 mm 5 mps 758 mmHg 54%
    18:00 +16°C° 0 mm 5 mps 758 mmHg 59%
    19:00 +15°C° 0 mm 4 mps 758 mmHg 65%
    20:00 +13°C° 0 mm 4 mps 758 mmHg 70%
    21:00 +12°C° 0 mm 3 mps 758 mmHg 71%
    22:00 +11°C° 0 mm 3 mps 758 mmHg 73%
    23:00 +11°C° 0 mm 3 mps 758 mmHg 74%

    28 May, Monday

    Time Temperature Precipitation Wind Pressure Humidity
    00:00 +10°C° 0 mm 3 mps 758 mmHg 75%
    01:00 +10°C° 0 mm 3 mps 758 mmHg 76%
    02:00 +9°C° 0 mm 3 mps 758 mmHg 76%
    03:00 +10°C° 0 mm 4 mps 758 mmHg 76%
    04:00 +10°C° 0 mm 4 mps 758 mmHg 75%
    05:00 +10°C° 0 mm 4 mps 758 mmHg 75%
    06:00 +12°C° 0 mm 4 mps 758 mmHg 68%
    07:00 +15°C° 0 mm 5 mps 758 mmHg 61%
    08:00 +17°C° 0 mm 5 mps 758 mmHg 54%
    09:00 +19°C° 0 mm 5 mps 757 mmHg 51%
    10:00 +20°C° 0 mm 5 mps 757 mmHg 47%
    11:00 +22°C° 0 mm 5 mps 757 mmHg 44%
    12:00 +22°C° 0 mm 5 mps 757 mmHg 44%
    13:00 +23°C° 0 mm 5 mps 757 mmHg 44%
    14:00 +23°C° 0 mm 5 mps 756 mmHg 45%
    15:00 +23°C° 0 mm 5 mps 756 mmHg 49%
    16:00 +23°C° 0 mm 4 mps 756 mmHg 52%
    17:00 +22°C° 0 mm 4 mps 756 mmHg 56%
    18:00 +21°C° 0 mm 4 mps 756 mmHg 63%
    19:00 +19°C° 0 mm 4 mps 756 mmHg 70%
    20:00 +17°C° 0 mm 3 mps 756 mmHg 77%
    21:00 +16°C° 0 mm 3 mps 756 mmHg 79%
    22:00 +16°C° 0 mm 3 mps 756 mmHg 82%
    23:00 +14°C° 0 mm 3 mps 756 mmHg 85%
    Show more